Regional Weather Roundup
Issued by NWS State College, PA

Home | Current Version | Previous Version | Text Only | Print | Product List | Glossary On
Versions: 1 2 3 4 5 6 7 8 9 10 11 12 13 14 15 16 17 18 19 20 21 22 23 24 25 26 27 28 29 30 31 32 33 34 35 36 37 38 39 40 41 42 43 44 45 46 47 48 49 50
000
ASUS41 KCTP 240910
RWRCTP

REGIONAL WEATHER ROUNDUP
NATIONAL WEATHER SERVICE STATE COLLEGE PA
500 AM EDT MON APR 24 2017

Note: "fair" indicates few or no clouds below 12,000 feet with no
significant weather and/or obstructions to visibility.

* = STATION THAT DOES NOT REPORT PRECIPITATION /E.G. RAIN...SNOW...ETC/
    THUNDER OR FOG.

PAZ002>004-007>009-013>016-020>023-029>032-241000-
WESTERN PENNSYLVANIA

CITY           SKY/WX    TMP DP  RH WIND       PRES   REMARKS
ERIE           CLEAR     40  31  70 CALM      30.06S
MEADVILLE      CLEAR     44  25  47 N8        30.04S
FRANKLIN*      CLEAR     43  30  61 E6        30.06R
NEW CASTLE     FAIR      39  36  89 CALM      30.03S
BEAVER COUNTY  NOT AVBL
BUTLER*        CLOUDY    43  34  70 NE5       30.03S
PITTSBURGH INT CLOUDY    45  34  65 E6        30.00F
PITTSBURGH     PTCLDY    48  32  53 NE5       30.00F
INDIANA*       CLEAR     43  36  75 CALM      30.07S
LATROBE        PTCLDY    50  37  62 NE6       30.03S
WASHINGTON CO* CLOUDY    46  36  66 NE8       30.01F
$$

PAZ004>006-010>012-017>019-024>028-033>037-041-042-045-046-049>053-241000-
CENTRAL PENNSYLVANIA

CITY           SKY/WX    TMP DP  RH WIND       PRES   REMARKS
BRADFORD       CLEAR     34  30  85 CALM      30.07F
DUBOIS         CLEAR     43  29  57 NE6       30.04F
CLEARFIELD     CLEAR     41  32  70 NE5       30.06F
JOHNSTOWN      PTCLDY    46  37  71 CALM      30.03S
ALTOONA        CLOUDY    45  41  86 CALM      30.06F
STATE COLLEGE  CLEAR     41  33  73 CALM      30.08R
WILLIAMSPORT   CLEAR     41  37  86 NW3       30.08F
SELINSGROVE    CLEAR     36  35  96 CALM      30.10R
FT INDIANTOWN  CLOUDY    42  42 100 CALM      30.09R
CAPITAL CITY   CLOUDY    47  43  86 CALM      30.09R
HARRISBURG     CLOUDY    49  46  90 CALM      30.08S
YORK           CLOUDY    49  47  93 CALM      30.07F
$$

PAZ038>040-043-044-047-048-054-055-060>062-067>071-241000-
EASTERN PENNSYLVANIA

CITY           SKY/WX    TMP DP  RH WIND       PRES   REMARKS
SCRANTON       CLEAR     45  36  70 E8        30.09S
MOUNT POCONO   CLEAR     39  36  89 N6        30.09S
ALLENTOWN      CLOUDY    43  39  86 N5        30.10R
QUAKERTOWN*    CLOUDY    43  43 100 CALM      30.11R
READING        CLOUDY    48  46  93 CALM      30.09R
LANCASTER      CLOUDY    48  47  96 CALM      30.09R
COATESVILLE    CLOUDY    48  46  93 N3        30.10S
POTTSTOWN      CLOUDY    46  45  96 CALM      30.11S
BLUE BELL      CLOUDY    45  45 100 CALM      30.12R
DOYLESTOWN     CLOUDY    44  44 100 N3        30.10R
WILLOW GROVE   NOT AVBL
NORTH PHILA    CLOUDY    49  45  86 E5        30.12R
PHILADELPHIA   CLOUDY    50  45  83 E5        30.11S
$$




USA.gov is the U.S. government's official web portal to all federal, state and local government web resources and services.